{"data":{"norad_id":56882,"intl_designator":"2023-083G","name":"STARLINK-6175","alt_names":[],"object_type":"PAYLOAD","status":"ACTIVE","operator":null,"country":"US","launch_date":"2023-06-12","launch_site_code":"AFETR","launch_vehicle":null,"mission":null,"orbit_class":"UNKNOWN","rcs_meters":null,"size_class":null,"mass_kg":null,"dimensions":null,"purposes":["comms"],"wikipedia_slug":null,"has_3d_model":false,"image_url":null,"decayed_at":null,"tle_current":{"epoch":"2026-05-25T00:12:38.566944Z","epoch_age_seconds":85006,"freshness":"FRESH","line1":"1 56882U 23083G   26145.00877971 -.00000703  00000+0 -16050-4 0  9999","line2":"2 56882  43.0015  14.0845 0000783 260.5140  99.5623 15.27567525163304","mean_motion":15.27567525,"eccentricity":7.83e-5,"inclination_deg":43.0015,"raan_deg":14.0845,"arg_perigee_deg":260.514,"mean_anomaly_deg":99.5623,"bstar":-1.605e-5,"rev_number":16330,"period_min":94.267518550448,"perigee_km":482.54921713552,"apogee_km":483.62368472794,"semimajor_km":6861.2234509317,"source":"CELESTRAK","updated_at":"2026-05-25T13:38:18.167695Z"}}}